Weather History for Auburn, IN

Change the Weather History Date:

Sunday, December 25, 2011

  Actual Average (KFWA) Record (KFWA)
Temperature  
Mean Temperature 37 °F 27 °F  
Max Temperature 42 °F 34 °F 64 °F (1982)
Min Temperature 32 °F 20 °F -15 °F (2004)
Degree Days  
Heating Degree Days 28 38  
Month to date heating degree days 877  
Since 1 July heating degree days 2094  
Cooling Degree Days 0 0  
Month to date cooling degree days 0  
Year to date cooling degree days 809  
Moisture  
Dew Point 29 °F    
Average Humidity 76    
Maximum Humidity 87    
Minimum Humidity 61    
Precipitation  
Precipitation 0.00 in 0.09 in 1.03 in (1982)
Month to date precipitation 2.26  
Year to date precipitation 37.83  
Snow  
Snow 0.00 in 0.30 in 6.10 in (1915)
Month to date snowfall 6.5  
Since 1 July snowfall 8.6  
Snow Depth -    
Sea Level Pressure  
Sea Level Pressure 30.10 in    
Wind  
Wind Speed 11 mph (WSW)    
Max Wind Speed 24 mph    
Max Gust Speed 31 mph    
Visibility 10 miles    
Events      
T = Trace of Precipitation, MM = Missing Value Source: NWS Daily Summary

Daily Weather History Graph

Daily Weather History Graph

Search for Another Location

Airport:

Trip Planner

Search our weather history database for the weather conditions in past years. The results will help you decide how hot, cold, wet, or windy it might be!

Date:

Astronomy

Dec. 25, 2011 Rise Set
Actual Time 8:04 AM EST 5:16 PM EST
Civil Twilight 7:33 AM EST 5:47 PM EST
Nautical Twilight 6:58 AM EST 6:22 PM EST
Astronomical Twilight 6:24 AM EST 6:56 PM EST
Moon 8:41 AM EST (12/25) 6:36 PM EST (12/25)
Length of Visible Light 10h 14m
Length of Day
9h 11m
New Moon, 1% of the Moon is Illuminated
Dec 25
New Moon
Jan 1
First Quarter
Jan 9
Full
Jan 16
Last Quarter
Jan 23
New

Hourly Weather History & Observations

Time (EST) Temp. Windchill Dew Point Humidity Pressure Visibility Wind Dir Wind Speed Gust Speed Precip Events Conditions
12:15 AM 32.0 °F 25.6 °F 28.4 °F 87% 30.21 in 10.0 mi SW 6.9 mph - N/A   Clear
12:35 AM 32.0 °F 24.8 °F 28.4 °F 87% 30.20 in 10.0 mi SW 8.1 mph - N/A   Clear
12:55 AM 32.0 °F 24.8 °F 28.4 °F 87% 30.19 in 10.0 mi SW 8.1 mph - N/A   Clear
1:15 AM 32.0 °F 24.2 °F 28.4 °F 87% 30.19 in 10.0 mi SW 9.2 mph - N/A   Clear
1:35 AM 32.0 °F 24.2 °F 28.4 °F 87% 30.17 in 10.0 mi SW 9.2 mph - N/A   Clear
1:55 AM 32.0 °F 24.2 °F 28.4 °F 87% 30.17 in 10.0 mi SW 9.2 mph - N/A   Clear
2:15 AM 32.0 °F 23.6 °F 28.4 °F 87% 30.16 in 10.0 mi WSW 10.4 mph - N/A   Clear
2:35 AM 32.0 °F 24.8 °F 28.4 °F 87% 30.15 in 10.0 mi SW 8.1 mph - N/A   Clear
2:55 AM 32.0 °F 24.8 °F 28.4 °F 87% 30.16 in 10.0 mi SW 8.1 mph - N/A   Clear
3:15 AM 32.0 °F 23.6 °F 28.4 °F 87% 30.16 in 10.0 mi SW 10.4 mph - N/A   Clear
3:35 AM 32.0 °F 24.8 °F 28.4 °F 87% 30.15 in 10.0 mi SW 8.1 mph - N/A   Clear
3:55 AM 32.0 °F 25.6 °F 28.4 °F 87% 30.15 in 10.0 mi SW 6.9 mph - N/A   Scattered Clouds
4:15 AM 32.0 °F 24.8 °F 28.4 °F 87% 30.13 in 10.0 mi SSW 8.1 mph - N/A   Mostly Cloudy
4:35 AM 33.8 °F 26.4 °F 28.4 °F 81% 30.12 in 10.0 mi SSW 9.2 mph 16.1 mph N/A   Overcast
4:55 AM 33.8 °F 25.8 °F 28.4 °F 81% 30.11 in 10.0 mi SSW 10.4 mph 17.3 mph N/A   Overcast
5:15 AM 33.8 °F 27.7 °F 28.4 °F 81% 30.10 in 10.0 mi SW 6.9 mph 18.4 mph N/A   Mostly Cloudy
5:35 AM 33.8 °F 25.8 °F 28.4 °F 81% 30.08 in 10.0 mi SW 10.4 mph 21.9 mph N/A   Scattered Clouds
5:55 AM 33.8 °F 25.8 °F 28.4 °F 81% 30.10 in 10.0 mi WSW 10.4 mph 19.6 mph N/A   Clear
6:15 AM 33.8 °F 25.8 °F 28.4 °F 81% 30.10 in 10.0 mi SW 10.4 mph 17.3 mph N/A   Clear
6:35 AM 33.8 °F 26.4 °F 28.4 °F 81% 30.10 in 10.0 mi WSW 9.2 mph 18.4 mph N/A   Clear
6:55 AM 33.8 °F 27.0 °F 28.4 °F 81% 30.09 in 10.0 mi SW 8.1 mph 17.3 mph N/A   Clear
7:15 AM 33.8 °F 26.4 °F 28.4 °F 81% 30.09 in 10.0 mi SW 9.2 mph 16.1 mph N/A   Clear
7:35 AM 33.8 °F 25.8 °F 28.4 °F 81% 30.08 in 10.0 mi SW 10.4 mph - N/A   Clear
7:55 AM 33.8 °F 26.4 °F 28.4 °F 81% 30.08 in 10.0 mi SW 9.2 mph - N/A   Clear
8:15 AM 33.8 °F 25.3 °F 28.4 °F 81% 30.06 in 10.0 mi SSW 11.5 mph 17.3 mph N/A   Clear
8:35 AM 33.8 °F 25.8 °F 28.4 °F 81% 30.06 in 10.0 mi SW 10.4 mph 19.6 mph N/A   Clear
8:55 AM 33.8 °F 25.8 °F 28.4 °F 81% 30.05 in 10.0 mi SSW 10.4 mph 17.3 mph N/A   Clear
9:15 AM 33.8 °F 26.4 °F 28.4 °F 81% 30.05 in 10.0 mi WSW 9.2 mph 17.3 mph N/A   Clear
9:35 AM 33.8 °F 26.4 °F 28.4 °F 81% 30.05 in 10.0 mi WSW 9.2 mph 17.3 mph N/A   Clear
9:55 AM 35.6 °F 27.5 °F 28.4 °F 75% 30.05 in 10.0 mi WSW 11.5 mph 18.4 mph N/A   Clear
10:15 AM 37.4 °F 29.3 °F 30.2 °F 75% 30.05 in 10.0 mi WSW 12.7 mph 16.1 mph N/A   Clear
10:35 AM 37.4 °F 29.8 °F 30.2 °F 75% 30.06 in 10.0 mi WSW 11.5 mph 24.2 mph N/A   Clear
10:55 AM 37.4 °F 28.9 °F 30.2 °F 75% 30.05 in 10.0 mi WSW 13.8 mph 18.4 mph N/A   Clear
11:15 AM 39.2 °F 32.0 °F 30.2 °F 70% 30.04 in 10.0 mi SW 11.5 mph 16.1 mph N/A   Clear
11:35 AM 41.0 °F 34.3 °F 30.2 °F 65% 30.03 in 10.0 mi WSW 11.5 mph - N/A   Clear
11:55 AM 41.0 °F 34.3 °F 30.2 °F 65% 30.03 in 10.0 mi WSW 11.5 mph 18.4 mph N/A   Clear
12:15 PM 42.8 °F 36.2 °F 30.2 °F 61% 30.03 in 10.0 mi WSW 12.7 mph 21.9 mph N/A   Clear
12:35 PM 42.8 °F 36.2 °F 30.2 °F 61% 30.02 in 10.0 mi West 12.7 mph 18.4 mph N/A   Clear
12:55 PM 42.8 °F 35.4 °F 30.2 °F 61% 30.02 in 10.0 mi West 15.0 mph 23.0 mph N/A   Clear
1:15 PM 42.8 °F 35.8 °F 30.2 °F 61% 30.03 in 10.0 mi West 13.8 mph 24.2 mph N/A   Clear
1:35 PM 42.8 °F 33.5 °F 30.2 °F 61% 30.03 in 10.0 mi West 23.0 mph - N/A   Clear
1:55 PM 41.0 °F 32.2 °F 30.2 °F 65% 30.03 in 10.0 mi West 18.4 mph 25.3 mph N/A   Scattered Clouds
2:15 PM 42.8 °F 33.8 °F 30.2 °F 61% 30.03 in 10.0 mi West 21.9 mph 28.8 mph N/A   Scattered Clouds
2:35 PM 41.0 °F 31.1 °F 32.0 °F 70% 30.04 in 10.0 mi West 23.0 mph 28.8 mph N/A   Scattered Clouds
2:55 PM 42.8 °F 33.3 °F 32.0 °F 66% 30.04 in 10.0 mi West 24.2 mph 28.8 mph N/A   Mostly Cloudy
3:15 PM 41.0 °F 31.9 °F 30.2 °F 65% 30.05 in 10.0 mi West 19.6 mph 31.1 mph N/A   Overcast
3:35 PM 41.0 °F 31.6 °F 30.2 °F 65% 30.07 in 10.0 mi West 20.7 mph 31.1 mph N/A   Overcast
3:55 PM 41.0 °F 32.8 °F 30.2 °F 65% 30.08 in 10.0 mi WNW 16.1 mph 29.9 mph N/A   Overcast
4:15 PM 41.0 °F 32.2 °F 30.2 °F 65% 30.10 in 10.0 mi WNW 18.4 mph 26.5 mph N/A   Overcast
4:35 PM 39.2 °F 29.3 °F 30.2 °F 70% 30.11 in 10.0 mi WNW 20.7 mph 25.3 mph N/A   Overcast
4:55 PM 39.2 °F 30.5 °F 30.2 °F 70% 30.13 in 10.0 mi WNW 16.1 mph 21.9 mph N/A   Overcast
5:15 PM 39.2 °F 30.5 °F 30.2 °F 70% 30.13 in 10.0 mi WNW 16.1 mph 20.7 mph N/A   Overcast
5:35 PM 39.2 °F 30.8 °F 30.2 °F 70% 30.15 in 10.0 mi WNW 15.0 mph 20.7 mph N/A   Overcast
5:55 PM 37.4 °F 29.3 °F 30.2 °F 75% 30.16 in 10.0 mi WNW 12.7 mph 23.0 mph N/A   Overcast
6:15 PM 37.4 °F 29.3 °F 30.2 °F 75% 30.17 in 10.0 mi WNW 12.7 mph 19.6 mph N/A   Overcast
6:35 PM 37.4 °F 29.8 °F 30.2 °F 75% 30.18 in 10.0 mi WNW 11.5 mph 16.1 mph N/A   Overcast
6:55 PM 37.4 °F 31.4 °F 30.2 °F 75% 30.18 in 10.0 mi WNW 8.1 mph - N/A   Overcast
7:15 PM 37.4 °F 30.8 °F 30.2 °F 75% 30.19 in 10.0 mi WNW 9.2 mph - N/A   Overcast
7:35 PM 37.4 °F 30.8 °F 30.2 °F 75% 30.20 in 10.0 mi WNW 9.2 mph - N/A   Overcast
7:55 PM 37.4 °F 30.3 °F 30.2 °F 75% 30.21 in 10.0 mi West 10.4 mph - N/A   Overcast
8:15 PM 37.4 °F 30.8 °F 30.2 °F 75% 30.22 in 10.0 mi WNW 9.2 mph - N/A   Overcast
8:35 PM 37.4 °F 30.8 °F 30.2 °F 75% 30.23 in 10.0 mi WNW 9.2 mph - N/A   Overcast
8:55 PM 37.4 °F 31.4 °F 30.2 °F 75% 30.23 in 10.0 mi WNW 8.1 mph - N/A   Overcast
9:15 PM 37.4 °F 31.4 °F 30.2 °F 75% 30.23 in 10.0 mi West 8.1 mph - N/A   Overcast
9:35 PM 37.4 °F 32.1 °F 30.2 °F 75% 30.23 in 10.0 mi West 6.9 mph - N/A   Overcast
9:55 PM 37.4 °F 32.1 °F 30.2 °F 75% 30.23 in 10.0 mi West 6.9 mph - N/A   Overcast
10:35 PM 37.4 °F 32.1 °F 30.2 °F 75% 30.24 in 10.0 mi West 6.9 mph - N/A   Overcast
10:55 PM 37.4 °F 32.8 °F 30.2 °F 75% 30.25 in 10.0 mi West 5.8 mph - N/A   Overcast
11:15 PM 35.6 °F 29.9 °F 30.2 °F 81% 30.26 in 10.0 mi West 6.9 mph - N/A   Overcast
11:35 PM 35.6 °F 30.7 °F 30.2 °F 81% 30.27 in 10.0 mi West 5.8 mph - N/A   Overcast
11:55 PM 35.6 °F 29.9 °F 32.0 °F 87% 30.28 in 10.0 mi West 6.9 mph - N/A   Overcast